EW7605 Weather Reports


time (UTC)temp
F
wind
direction
speed
knots
gust
knots
rain 1hr
in
rain 24hr
in
rain mn
in
humidity
%
barometer
mb
20260506033045 55 232 3.5 6.1 0.00 0.00 0.00 71 1006.9
20260506031549 55 207 2.6 5.2 0.00 0.00 0.00 72 1007.0
20260506030041 56 237 2.6 5.2 0.00 0.00 0.00 73 1006.9
20260506024547 57 204 2.6 6.1 0.00 0.00 0.00 73 1007.1
20260506023041 58 205 3.5 5.2 0.00 0.00 0.00 72 1007.2
20260506021540 59 226 2.6 6.1 0.00 0.00 0.00 72 1007.2
20260506020039 60 209 4.3 7.0 0.00 0.00 0.00 71 1007.3
20260506014542 60 211 2.6 4.3 0.00 0.00 0.00 71 1007.4
20260506013038 60 211 0.9 3.5 0.00 0.00 0.00 71 1007.3
20260506011537 61 214 1.7 3.5 0.00 0.00 0.00 70 1007.3
20260506010038 60 205 1.7 4.3 0.00 0.00 0.00 70 1007.1
20260506004537 61 191 1.7 5.2 0.00 0.00 0.00 70 1007.0
20260506003039 61 219 2.6 6.1 0.00 0.00 0.00 70 1006.7
20260506001539 62 236 0.9 7.8 0.00 0.00 0.00 68 1005.9
20260506000036 63 244 0.9 2.6 0.00 0.00 0.00 68 1005.2
20260505234537 64 5 0.0 2.6 0.00 0.00 0.00 66 1005.8
20260505233034 64 5 0.0 3.5 0.00 0.00 0.00 66 1005.8
20260505231535 64 288 2.6 7.8 0.00 0.00 0.00 65 1006.1
20260505230048 63 342 6.1 13.0 0.00 0.00 0.00 65 1006.0
20260505224533 63 234 6.1 15.6 0.00 0.00 0.00 64 1003.8
20260505223032 63 225 7.8 21.7 0.00 0.00 0.00 64 1003.8
20260505221531 64 279 9.6 16.5 0.00 0.00 0.00 62 1003.7
20260505220032 64 64 7.0 12.2 0.00 0.00 0.00 65 1003.6
20260505214530 63 232 7.0 13.0 0.00 0.00 0.00 67 1003.6
20260505213029 63 229 6.1 13.0 0.00 0.00 0.00 67 1003.5
20260505211528 64 196 6.1 11.3 0.00 0.00 0.00 65 1003.3
20260505210028 65 249 6.1 15.6 0.00 0.00 0.00 63 1003.3
20260505204527 65 224 7.8 19.1 0.00 0.00 0.00 63 1003.2
20260505203027 65 196 7.0 18.2 0.00 0.00 0.00 63 1003.2
20260505201524 66 271 7.8 18.2 0.00 0.00 0.00 63 1003.3
20260505200024 66 196 6.1 17.4 0.00 0.00 0.00 63 1003.6
20260505194523 66 338 4.3 11.3 0.00 0.00 0.00 63 1003.9
20260505193020 65 242 7.8 15.6 0.00 0.00 0.00 63 1004.0
20260505191517 66 197 7.0 14.8 0.00 0.00 0.00 63 1004.2
20260505190015 67 213 6.1 12.2 0.00 0.00 0.00 60 1004.4
20260505184515 65 226 6.1 13.0 0.00 0.00 0.00 63 1004.4
20260505183012 65 252 7.0 16.5 0.00 0.00 0.00 64 1004.8
20260505181512 65 203 7.8 14.8 0.00 0.00 0.00 65 1005.0
20260505180023 65 205 10.4 19.1 0.00 0.00 0.00 63 1005.0
20260505174508 66 220 7.8 13.0 0.00 0.00 0.00 61 1005.1
20260505173007 67 219 6.1 16.5 0.00 0.00 0.00 61 1005.0
20260505171505 68 198 7.0 14.8 0.00 0.00 0.00 60 1005.5
20260505170002 68 211 4.3 13.9 0.00 0.00 0.00 59 1005.5
20260505164600 69 207 7.8 18.2 0.00 0.00 0.00 57 1005.7
20260505163058 68 281 4.3 13.9 0.00 0.00 0.00 57 1006.2
20260505161556 68 271 5.2 10.4 0.00 0.00 0.00 61 1006.2
20260505153044 60 244 5.2 8.7 0.00 0.00 0.00 71 1007.1
20260505151541 57 284 6.1 9.6 0.00 0.00 0.00 72 1007.3
20260505124523 57 196 2.6 9.6 0.00 0.00 0.00 70 1007.2
20260505123029 56 186 4.3 9.6 0.00 0.00 0.00 71 1007.2
20260505121519 56 238 5.2 9.6 0.00 0.00 0.00 71 1007.3
20260505120023 57 329 3.5 8.7 0.00 0.00 0.00 71 1007.4
20260505114516 55 227 2.6 8.7 0.00 0.00 0.00 72 1007.7
20260505113014 54 214 3.5 9.6 0.00 0.00 0.00 71 1007.6
20260505111519 53 213 3.5 7.0 0.00 0.00 0.00 69 1007.7
20260505101527 49 259 1.7 4.3 0.00 0.00 0.00 63 1007.6
20260505100032 49 250 0.9 3.5 0.00 0.00 0.00 61 1007.6
20260505094508 49 262 1.7 5.2 0.00 0.00 0.00 63 1007.6
20260505093005 49 194 1.7 6.1 0.00 0.00 0.00 67 1007.5
20260505091503 49 219 0.9 3.5 0.00 0.00 0.00 70 1007.5
20260505090108 50 222 0.9 2.6 0.00 0.00 0.00 72 1007.6
20260505084606 50 213 0.9 2.6 0.00 0.00 0.00 73 1007.7
20260505083057 52 221 1.7 6.1 0.00 0.00 0.00 72 1007.8
20260505081604 53 244 0.0 2.6 0.00 0.00 0.00 69 1007.8
20260505080059 53 238 0.9 2.6 0.00 0.00 0.00 68 1007.7
20260505074549 54 230 0.9 2.6 0.00 0.00 0.00 67 1007.9
20260505073048 54 240 0.9 3.5 0.00 0.00 0.00 66 1007.7
20260505071551 55 284 0.0 1.7 0.00 0.00 0.00 65 1007.7
20260505070042 55 286 0.0 2.6 0.00 0.00 0.00 64 1007.7
20260505064541 55 267 0.0 2.6 0.00 0.00 0.00 64 1007.7
20260505063047 55 294 0.0 1.7 0.00 0.00 0.00 64 1007.7
20260505061541 56 292 0.0 0.9 0.00 0.00 0.00 63 1007.7
20260505060037 56 291 0.0 2.6 0.00 0.00 0.00 63 1007.7
20260505054544 56 291 0.0 2.6 0.00 0.00 0.00 62 1007.6
20260505053040 56 277 0.0 2.6 0.00 0.00 0.00 62 1007.6
20260505051540 57 261 0.9 3.5 0.00 0.00 0.00 61 1007.5
20260505041526 56 229 1.7 6.1 0.00 0.00 0.00 63 1007.2
20260505040023 56 14 0.9 7.0 0.00 0.00 0.00 65 1007.0
20260505034523 55 263 2.6 7.0 0.00 0.00 0.00 68 1006.9